User: anonymous   Login
Location: Caltech
(34.1382°N, 118.1253°W)
Time: 02:29:16
(UTC-07:00)
Language:

Oscar 11 - Orbit

View from above orbital plane
View from above orbital plane
View from above satellite
View from above satellite

Ground track
Ground track

The orbit data is extracted from the following two-line orbital elements,

1 14781U 84021B   17296.91164992 +.00000151 +00000-0 +24835-4 0  9995
2 14781 097.6824 337.7808 0009612 131.8101 228.3936 14.82945868788425
Epoch (UTC): 23 October 2017 21:52:46
Eccentricity: 0.0009612
inclination: 97.6824°
perigee height: 613 km
apogee height: 627 km
right ascension of ascending node: 337.7808°
argument of perigee: 131.8101°
revolutions per day: 14.82945868
mean anomaly at epoch: 228.3936°
orbit number at epoch: 78842

The dashed part of the orbit path shows where the satellite is in the earth's shadow,  

DLR